Location: Albany
(35.0000°S, 118.0000°E)
Time: 14:22:35
(UTC-04:00)

Vanguard 1 - Visible Passes

Search period start: 25 April 2018 00:00
Search period end: 05 May 2018 00:00
Orbit: 650 x 3833 km, 34.2° (Epoch: 24 April)

Date Brightness Start Highest point End Pass type
(mag) Time Alt. Az. Time Alt. Az. Time Alt. Az.
25 Apr 13.9 17:46:48 10° N 17:59:04 24° NE 18:14:47 10° E visible
26 Apr 13.7 05:56:15 10° WNW 06:01:15 12° WNW 06:05:26 10° NW visible
26 Apr 13.8 18:05:44 10° N 18:19:29 32° NE 18:37:56 10° E visible
28 Apr 13.9 16:32:08 10° NNE 16:39:29 15° ENE 16:48:28 10° E visible
29 Apr 13.6 16:49:39 10° N 16:59:40 22° NE 17:13:14 10° E visible
30 Apr 13.5 17:08:31 10° N 17:19:55 30° NE 17:36:32 10° E visible
01 May 13.3 17:28:02 10° NNW 17:40:19 39° NE 17:59:07 10° ESE visible
02 May 13.6 15:36:19 10° NE 15:40:47 12° ENE 15:46:00 10° ENE visible
02 May 13.2 17:48:00 10° NNW 18:00:54 48° NE 18:21:19 10° ESE visible
03 May 13.3 15:53:07 10° NNE 16:00:52 19° NE 16:11:29 10° E visible
03 May 13.1 18:08:17 10° NW 18:21:41 58° NNE 18:43:19 10° ESE visible
04 May 13.1 16:11:51 10° N 16:21:02 27° NE 16:34:54 10° E visible
